owner,sensor,date,latitude,longitude,vertical_datum,wind_speed,wind_to_direction,wind_speed_of_gust,qcFlag 
TABS,ioos:station:wmo:42045:1,2017-03-01T00:00:00Z,26.2168,-96.4998,4.0,5.633222879,156.3475923,6.9,'11111222,11111222,11111222' 
TABS,ioos:station:wmo:42045:1,2017-03-01T00:30:00Z,26.2168,-96.4998,4.0,5.438713083,154.2832858,6.58,'11111222,11111222,11111222' 
TABS,ioos:station:wmo:42045:1,2017-03-01T01:00:00Z,26.2168,-96.4998,4.0,6.289077834,155.8805248,7.72,'11111222,11111222,11111222' 
TABS,ioos:station:wmo:42045:1,2017-03-01T01:30:00Z,26.2168,-96.4998,4.0,6.838552478,156.4716338,8.08,'11111222,11111222,11111222' 
TABS,ioos:station:wmo:42045:1,2017-03-01T02:00:00Z,26.2168,-96.4998,4.0,6.901427389,155.7005994,8.06,'11111222,11111222,11111222' 
TABS,ioos:station:wmo:42045:1,2017-03-01T02:30:00Z,26.2168,-96.4998,4.0,7.023595945,156.6838482,8.34,'11111222,11111222,11111222' 
TABS,ioos:station:wmo:42045:1,2017-03-01T03:00:00Z,26.2168,-96.4998,4.0,11.7790492,159.3189647,13.02,'11111222,11111222,11111222' 
TABS,ioos:station:wmo:42045:1,2017-03-01T03:30:00Z,26.2168,-96.4998,4.0,7.502013063,154.8357304,8.64,'11111222,11111222,11111222' 
TABS,ioos:station:wmo:42045:1,2017-03-01T04:00:00Z,26.2168,-96.4998,4.0,7.794626354,157.2842743,9.07,'11111222,11111222,11111222' 
TABS,ioos:station:wmo:42045:1,2017-03-01T04:30:00Z,26.2168,-96.4998,4.0,8.10072219,158.9475145,10.1,'11111222,11111222,11111222' 
TABS,ioos:station:wmo:42045:1,2017-03-01T05:00:00Z,26.2168,-96.4998,4.0,7.684334714,161.5653047,9.14,'11111222,11111222,11111222' 
TABS,ioos:station:wmo:42045:1,2017-03-01T05:30:00Z,26.2168,-96.4998,4.0,7.868551328,163.3846994,9.42,'11111222,11111222,11111222' 
TABS,ioos:station:wmo:42045:1,2017-03-01T06:00:00Z,26.2168,-96.4998,4.0,7.742764364,165.0306947,9.07,'11111222,11111222,11111222' 
TABS,ioos:station:wmo:42045:1,2017-03-01T06:30:00Z,26.2168,-96.4998,4.0,5.947184208,167.6699753,6.99,'11111222,11111222,11111222' 
TABS,ioos:station:wmo:42045:1,2017-03-01T07:00:00Z,26.2168,-96.4998,4.0,6.053924347,165.4590032,6.94,'11111222,11111222,11111222' 
TABS,ioos:station:wmo:42045:1,2017-03-01T07:30:00Z,26.2168,-96.4998,4.0,6.306005075,171.7030849,8.15,'11111222,11111222,11111222' 
TABS,ioos:station:wmo:42045:1,2017-03-01T08:00:00Z,26.2168,-96.4998,4.0,5.736314148,166.5938631,6.67,'11111222,11111222,11111222' 
TABS,ioos:station:wmo:42045:1,2017-03-01T08:30:00Z,26.2168,-96.4998,4.0,4.917814555,167.4335214,6.17,'11111222,11111222,11111222' 
TABS,ioos:station:wmo:42045:1,2017-03-01T09:00:00Z,26.2168,-96.4998,4.0,6.030762804,162.1361392,7.08,'11111222,11111222,11111222' 
TABS,ioos:station:wmo:42045:1,2017-03-01T09:30:00Z,26.2168,-96.4998,4.0,5.202403291,166.0975559,6.15,'11111222,11111222,11111222' 
TABS,ioos:station:wmo:42045:1,2017-03-01T10:00:00Z,26.2168,-96.4998,4.0,6.978889596,166.9994705,8.18,'11111222,11111222,11111222' 
TABS,ioos:station:wmo:42045:1,2017-03-01T10:30:00Z,26.2168,-96.4998,4.0,5.664035664,173.7158881,7.16,'11111222,11111222,11111222' 
TABS,ioos:station:wmo:42045:1,2017-03-01T11:00:00Z,26.2168,-96.4998,4.0,4.630205179,171.5551267,6.02,'11111222,11111222,11111222' 
TABS,ioos:station:wmo:42045:1,2017-03-01T11:30:00Z,26.2168,-96.4998,4.0,1.690946481,205.2012752,2.46,'11111222,11111222,11111222' 
TABS,ioos:station:wmo:42045:1,2017-03-01T12:00:00Z,26.2168,-96.4998,4.0,1.103675677,197.9426156,1.68,'11111222,11111222,11111222' 
TABS,ioos:station:wmo:42045:1,2017-03-01T12:30:00Z,26.2168,-96.4998,4.0,1.246795893,149.1153374,2.18,'11111222,11111222,11111222' 
TABS,ioos:station:wmo:42045:1,2017-03-01T13:00:00Z,26.2168,-96.4998,4.0,3.044536089,132.0714643,3.78,'11111222,11111222,11111222' 
TABS,ioos:station:wmo:42045:1,2017-03-01T13:30:00Z,26.2168,-96.4998,4.0,3.227506778,137.5116731,3.91,'11111222,11111222,11111222' 
TABS,ioos:station:wmo:42045:1,2017-03-01T14:00:00Z,26.2168,-96.4998,4.0,3.248199501,148.8550201,3.77,'11111222,11111222,11111222' 
TABS,ioos:station:wmo:42045:1,2017-03-01T14:30:00Z,26.2168,-96.4998,4.0,4.31149626,148.8542019,4.86,'11111222,11111222,11111222' 
TABS,ioos:station:wmo:42045:1,2017-03-01T15:00:00Z,26.2168,-96.4998,4.0,3.101032086,137.8757626,3.62,'11111222,11111222,11111222' 
TABS,ioos:station:wmo:42045:1,2017-03-01T15:30:00Z,26.2168,-96.4998,4.0,3.064131198,132.7519878,3.5,'11111222,11111222,11111222' 
TABS,ioos:station:wmo:42045:1,2017-03-01T16:00:00Z,26.2168,-96.4998,4.0,3.108858311,152.1988167,3.77,'11111222,11111222,11111222' 
TABS,ioos:station:wmo:42045:1,2017-03-01T16:30:00Z,26.2168,-96.4998,4.0,2.898827349,140.5996419,3.57,'11111222,11111222,11111222' 
TABS,ioos:station:wmo:42045:1,2017-03-01T17:00:00Z,26.2168,-96.4998,4.0,2.703368269,141.3073929,3.23,'11111222,11111222,11111222' 
TABS,ioos:station:wmo:42045:1,2017-03-01T17:30:00Z,26.2168,-96.4998,4.0,2.298042645,127.2192877,2.82,'11111222,11111222,11111222' 
TABS,ioos:station:wmo:42045:1,2017-03-01T18:00:00Z,26.2168,-96.4998,4.0,2.328626204,141.8016146,2.78,'11111222,11111222,11111222' 
TABS,ioos:station:wmo:42045:1,2017-03-01T18:30:00Z,26.2168,-96.4998,4.0,0.792275205,274.3432298,1.53,'11111222,11111222,11111222' 
TABS,ioos:station:wmo:42045:1,2017-03-01T19:00:00Z,26.2168,-96.4998,4.0,0.836002392,306.7327408,1.56,'11111222,11111222,11111222' 
TABS,ioos:station:wmo:42045:1,2017-03-01T19:30:00Z,26.2168,-96.4998,4.0,2.017771047,335.0858808,2.57,'11111222,11111222,11111222' 
TABS,ioos:station:wmo:42045:1,2017-03-01T20:00:00Z,26.2168,-96.4998,4.0,2.385497852,350.1031407,3.0,'11111222,11111222,11111222' 
TABS,ioos:station:wmo:42045:1,2017-03-01T20:30:00Z,26.2168,-96.4998,4.0,2.841144136,21.68880379,3.52,'11111222,11111222,11111222' 
TABS,ioos:station:wmo:42045:1,2017-03-01T21:00:00Z,26.2168,-96.4998,4.0,2.791218372,50.37807728,3.29,'11111222,11111222,11111222' 
TABS,ioos:station:wmo:42045:1,2017-03-01T21:30:00Z,26.2168,-96.4998,4.0,3.322965543,83.25953875,4.06,'11111222,11111222,11111222' 
TABS,ioos:station:wmo:42045:1,2017-03-01T22:00:00Z,26.2168,-96.4998,4.0,3.492420364,92.13365641,4.32,'11111222,11111222,11111222' 
TABS,ioos:station:wmo:42045:1,2017-03-01T22:30:00Z,26.2168,-96.4998,4.0,3.205807231,80.30222126,3.55,'11111222,11111222,11111222' 
TABS,ioos:station:wmo:42045:1,2017-03-01T23:00:00Z,26.2168,-96.4998,4.0,3.051638904,71.86153934,3.55,'11111222,11111222,11111222' 
TABS,ioos:station:wmo:42045:1,2017-03-01T23:30:00Z,26.2168,-96.4998,4.0,3.266818024,72.17476851,3.64,'11111222,11111222,11111222' 
TABS,ioos:station:wmo:42045:1,2017-03-02T00:00:00Z,26.2168,-96.4998,4.0,2.953861879,56.73997207,3.33,'11111222,11111222,11111222' 
TABS,ioos:station:wmo:42045:1,2017-03-02T00:30:00Z,26.2168,-96.4998,4.0,3.056550343,52.04248083,3.64,'11111222,11111222,11111222' 
TABS,ioos:station:wmo:42045:1,2017-03-02T01:00:00Z,26.2168,-96.4998,4.0,3.34005988,37.21268457,3.95,'11111222,11111222,11111222' 
TABS,ioos:station:wmo:42045:1,2017-03-02T01:30:00Z,26.2168,-96.4998,4.0,3.44200523,53.02989156,4.15,'11111222,11111222,11111222' 
TABS,ioos:station:wmo:42045:1,2017-03-02T02:00:00Z,26.2168,-96.4998,4.0,2.904961273,48.62820798,3.7,'11111222,11111222,11111222' 
TABS,ioos:station:wmo:42045:1,2017-03-02T02:30:00Z,26.2168,-96.4998,4.0,4.068537821,12.63549119,5.69,'11111222,11111222,11111222' 
TABS,ioos:station:wmo:42045:1,2017-03-02T03:00:00Z,26.2168,-96.4998,4.0,6.531010642,22.12696566,11.45,'11111222,11111222,11111222' 
TABS,ioos:station:wmo:42045:1,2017-03-02T03:30:00Z,26.2168,-96.4998,4.0,9.348909027,48.94635211,13.45,'11111222,11111222,11111222' 
TABS,ioos:station:wmo:42045:1,2017-03-02T04:00:00Z,26.2168,-96.4998,4.0,6.3903834,52.50214093,8.3,'11111222,11111222,11111222' 
TABS,ioos:station:wmo:42045:1,2017-03-02T04:30:00Z,26.2168,-96.4998,4.0,6.265365113,44.35303406,8.81,'11111222,11111222,11111222' 
TABS,ioos:station:wmo:42045:1,2017-03-02T05:00:00Z,26.2168,-96.4998,4.0,6.294410219,58.38022409,8.96,'11111222,11111222,11111222' 
TABS,ioos:station:wmo:42045:1,2017-03-02T05:30:00Z,26.2168,-96.4998,4.0,6.644004816,59.42042372,9.21,'11111222,11111222,11111222' 
TABS,ioos:station:wmo:42045:1,2017-03-02T06:00:00Z,26.2168,-96.4998,4.0,6.399007736,57.05461526,9.15,'11111222,11111222,11111222' 
TABS,ioos:station:wmo:42045:1,2017-03-02T06:30:00Z,26.2168,-96.4998,4.0,6.625722602,66.80104282,9.05,'11111222,11111222,11111222' 
TABS,ioos:station:wmo:42045:1,2017-03-02T07:00:00Z,26.2168,-96.4998,4.0,7.115707976,73.42377259,9.34,'11111222,11111222,11111222' 
TABS,ioos:station:wmo:42045:1,2017-03-02T07:30:00Z,26.2168,-96.4998,4.0,6.819560103,70.28928527,9.22,'11111222,11111222,11111222' 
TABS,ioos:station:wmo:42045:1,2017-03-02T08:00:00Z,26.2168,-96.4998,4.0,7.273513594,79.86385306,9.76,'11111222,11111222,11111222' 
TABS,ioos:station:wmo:42045:1,2017-03-02T08:30:00Z,26.2168,-96.4998,4.0,7.444602071,83.05595454,10.02,'11111222,11111222,11111222' 
TABS,ioos:station:wmo:42045:1,2017-03-02T09:00:00Z,26.2168,-96.4998,4.0,7.675897342,85.29173785,10.23,'11111222,11111222,11111222' 
TABS,ioos:station:wmo:42045:1,2017-03-02T09:30:00Z,26.2168,-96.4998,4.0,7.790231062,89.5582863,10.2,'11111222,11111222,11111222' 
TABS,ioos:station:wmo:42045:1,2017-03-02T10:00:00Z,26.2168,-96.4998,4.0,7.849694262,87.15176052,11.1,'11111222,11111222,11111222' 
TABS,ioos:station:wmo:42045:1,2017-03-02T10:30:00Z,26.2168,-96.4998,4.0,7.786668094,81.95274399,10.8,'11111222,11111222,11111222' 
TABS,ioos:station:wmo:42045:1,2017-03-02T11:00:00Z,26.2168,-96.4998,4.0,7.657636711,85.13031738,10.75,'11111222,11111222,11111222' 
TABS,ioos:station:wmo:42045:1,2017-03-02T11:30:00Z,26.2168,-96.4998,4.0,7.769794077,87.12245065,10.33,'11111222,11111222,11111222' 
TABS,ioos:station:wmo:42045:1,2017-03-02T12:00:00Z,26.2168,-96.4998,4.0,7.856570499,86.27768287,10.63,'11111222,11111222,11111222' 
TABS,ioos:station:wmo:42045:1,2017-03-02T12:30:00Z,26.2168,-96.4998,4.0,8.093861872,91.77042765,11.36,'11111222,11111222,11111222' 
TABS,ioos:station:wmo:42045:1,2017-03-02T13:00:00Z,26.2168,-96.4998,4.0,8.212947096,88.46461851,11.59,'11111222,11111222,11111222' 
TABS,ioos:station:wmo:42045:1,2017-03-02T13:30:00Z,26.2168,-96.4998,4.0,7.961620438,93.0964139,11.63,'11111222,11111222,11111222' 
TABS,ioos:station:wmo:42045:1,2017-03-02T14:00:00Z,26.2168,-96.4998,4.0,8.303180114,94.2826831,10.98,'11111222,11111222,11111222' 
TABS,ioos:station:wmo:42045:1,2017-03-02T14:30:00Z,26.2168,-96.4998,4.0,7.166707752,87.52045,10.4,'11111222,11111222,11111222' 
TABS,ioos:station:wmo:42045:1,2017-03-02T15:00:00Z,26.2168,-96.4998,4.0,7.523516465,88.24773179,10.33,'11111222,11111222,11111222' 
TABS,ioos:station:wmo:42045:1,2017-03-02T15:30:00Z,26.2168,-96.4998,4.0,7.89648656,92.32292579,10.5,'11111222,11111222,11111222' 
TABS,ioos:station:wmo:42045:1,2017-03-02T16:00:00Z,26.2168,-96.4998,4.0,7.501799784,84.72218534,9.78,'11111222,11111222,11111222' 
TABS,ioos:station:wmo:42045:1,2017-03-02T16:30:00Z,26.2168,-96.4998,4.0,7.389533138,84.87536033,10.19,'11111222,11111222,11111222' 
TABS,ioos:station:wmo:42045:1,2017-03-02T17:00:00Z,26.2168,-96.4998,4.0,7.267200286,82.80612585,10.16,'11111222,11111222,11111222' 
TABS,ioos:station:wmo:42045:1,2017-03-02T17:30:00Z,26.2168,-96.4998,4.0,7.273321112,86.53135793,9.41,'11111222,11111222,11111222' 
TABS,ioos:station:wmo:42045:1,2017-03-02T18:00:00Z,26.2168,-96.4998,4.0,6.677881401,78.33631232,9.5,'11111222,11111222,11111222' 
TABS,ioos:station:wmo:42045:1,2017-03-02T18:30:00Z,26.2168,-96.4998,4.0,6.795366068,77.33362062,8.86,'11111222,11111222,11111222' 
TABS,ioos:station:wmo:42045:1,2017-03-02T19:00:00Z,26.2168,-96.4998,4.0,6.38839573,68.89772568,9.1,'11111222,11111222,11111222' 
TABS,ioos:station:wmo:42045:1,2017-03-02T19:30:00Z,26.2168,-96.4998,4.0,6.62649983,72.79517821,8.91,'11111222,11111222,11111222' 
TABS,ioos:station:wmo:42045:1,2017-03-02T20:00:00Z,26.2168,-96.4998,4.0,6.99371861,80.11975818,9.15,'11111222,11111222,11111222' 
TABS,ioos:station:wmo:42045:1,2017-03-02T20:30:00Z,26.2168,-96.4998,4.0,7.093955173,80.17877095,9.21,'11111222,11111222,11111222' 
TABS,ioos:station:wmo:42045:1,2017-03-02T21:00:00Z,26.2168,-96.4998,4.0,6.758912634,72.61019613,8.76,'11111222,11111222,11111222' 
TABS,ioos:station:wmo:42045:1,2017-03-02T21:30:00Z,26.2168,-96.4998,4.0,6.829736452,74.45754196,9.58,'11111222,11111222,11111222' 
TABS,ioos:station:wmo:42045:1,2017-03-02T22:00:00Z,26.2168,-96.4998,4.0,6.636821528,73.09365072,9.24,'11111222,11111222,11111222' 
TABS,ioos:station:wmo:42045:1,2017-03-02T22:30:00Z,26.2168,-96.4998,4.0,6.596559709,71.34494043,9.65,'11111222,11111222,11111222' 
TABS,ioos:station:wmo:42045:1,2017-03-02T23:00:00Z,26.2168,-96.4998,4.0,6.868493285,71.40639851,9.35,'11111222,11111222,11111222' 
TABS,ioos:station:wmo:42045:1,2017-03-02T23:30:00Z,26.2168,-96.4998,4.0,7.177980217,78.34527715,9.83,'11111222,11111222,11111222' 
TABS,ioos:station:wmo:42045:1,2017-03-03T00:00:00Z,26.2168,-96.4998,4.0,7.412914407,80.91848193,10.38,'11111222,11111222,11111222' 
TABS,ioos:station:wmo:42045:1,2017-03-03T00:30:00Z,26.2168,-96.4998,4.0,7.320887924,80.96187404,9.62,'11111222,11111222,11111222' 
TABS,ioos:station:wmo:42045:1,2017-03-03T01:00:00Z,26.2168,-96.4998,4.0,7.169337487,83.99477026,9.76,'11111222,11111222,11111222' 
TABS,ioos:station:wmo:42045:1,2017-03-03T01:30:00Z,26.2168,-96.4998,4.0,7.1599581,79.94526699,9.65,'11111222,11111222,11111222' 
TABS,ioos:station:wmo:42045:1,2017-03-03T02:00:00Z,26.2168,-96.4998,4.0,7.245860887,84.29686742,9.4,'11111222,11111222,11111222' 
TABS,ioos:station:wmo:42045:1,2017-03-03T02:30:00Z,26.2168,-96.4998,4.0,6.830065885,77.57088825,9.79,'11111222,11111222,11111222' 
TABS,ioos:station:wmo:42045:1,2017-03-03T03:00:00Z,26.2168,-96.4998,4.0,6.974883512,83.49611546,9.17,'11111222,11111222,11111222' 
TABS,ioos:station:wmo:42045:1,2017-03-03T03:30:00Z,26.2168,-96.4998,4.0,7.324274708,83.02012264,9.45,'11111222,11111222,11111222' 
TABS,ioos:station:wmo:42045:1,2017-03-03T04:00:00Z,26.2168,-96.4998,4.0,7.194345001,88.00818227,9.4,'11111222,11111222,11111222' 
TABS,ioos:station:wmo:42045:1,2017-03-03T04:30:00Z,26.2168,-96.4998,4.0,7.037932935,83.308782,9.0,'11111222,11111222,11111222' 
TABS,ioos:station:wmo:42045:1,2017-03-03T05:00:00Z,26.2168,-96.4998,4.0,7.004891148,85.16802249,9.1,'11111222,11111222,11111222' 
TABS,ioos:station:wmo:42045:1,2017-03-03T05:30:00Z,26.2168,-96.4998,4.0,7.172307857,86.64250825,9.4,'11111222,11111222,11111222' 
TABS,ioos:station:wmo:42045:1,2017-03-03T06:00:00Z,26.2168,-96.4998,4.0,6.776916703,81.94123482,8.73,'11111222,11111222,11111222' 
TABS,ioos:station:wmo:42045:1,2017-03-03T06:30:00Z,26.2168,-96.4998,4.0,6.889412167,87.0042828,9.11,'11111222,11111222,11111222' 
TABS,ioos:station:wmo:42045:1,2017-03-03T07:00:00Z,26.2168,-96.4998,4.0,6.355910635,80.03339858,8.36,'11111222,11111222,11111222' 
TABS,ioos:station:wmo:42045:1,2017-03-03T07:30:00Z,26.2168,-96.4998,4.0,6.343390261,84.11823631,7.94,'11111222,11111222,11111222' 
TABS,ioos:station:wmo:42045:1,2017-03-03T08:00:00Z,26.2168,-96.4998,4.0,6.276941931,83.78036394,8.08,'11111222,11111222,11111222' 
TABS,ioos:station:wmo:42045:1,2017-03-03T08:30:00Z,26.2168,-96.4998,4.0,6.470007728,77.23066945,8.38,'11111222,11111222,11111222' 
TABS,ioos:station:wmo:42045:1,2017-03-03T09:00:00Z,26.2168,-96.4998,4.0,6.133881316,75.55557713,7.84,'11111222,11111222,11111222' 
TABS,ioos:station:wmo:42045:1,2017-03-03T09:30:00Z,26.2168,-96.4998,4.0,6.344801021,73.70690321,7.91,'11111222,11111222,11111222' 
TABS,ioos:station:wmo:42045:1,2017-03-03T10:00:00Z,26.2168,-96.4998,4.0,6.638614313,80.11161339,8.42,'11111222,11111222,11111222' 
TABS,ioos:station:wmo:42045:1,2017-03-03T10:30:00Z,26.2168,-96.4998,4.0,7.204054414,80.24962642,8.97,'11111222,11111222,11111222' 
TABS,ioos:station:wmo:42045:1,2017-03-03T11:00:00Z,26.2168,-96.4998,4.0,7.280968342,83.21620185,8.97,'11111222,11111222,11111222' 
TABS,ioos:station:wmo:42045:1,2017-03-03T11:30:00Z,26.2168,-96.4998,4.0,7.106335202,87.58007552,8.84,'11111222,11111222,11111222' 
TABS,ioos:station:wmo:42045:1,2017-03-03T12:00:00Z,26.2168,-96.4998,4.0,7.108621526,84.02433765,8.9,'11111222,11111222,11111222' 
TABS,ioos:station:wmo:42045:1,2017-03-03T12:30:00Z,26.2168,-96.4998,4.0,7.061451692,85.53243047,8.91,'11111222,11111222,11111222' 
TABS,ioos:station:wmo:42045:1,2017-03-03T13:00:00Z,26.2168,-96.4998,4.0,7.101865952,83.77522278,9.5,'11111222,11111222,11111222' 
TABS,ioos:station:wmo:42045:1,2017-03-03T13:30:00Z,26.2168,-96.4998,4.0,7.316098687,96.43573014,9.61,'11111222,11111222,11111222' 
TABS,ioos:station:wmo:42045:1,2017-03-03T14:00:00Z,26.2168,-96.4998,4.0,7.379058205,94.11922056,9.0,'11111222,11111222,11111222' 
TABS,ioos:station:wmo:42045:1,2017-03-03T14:30:00Z,26.2168,-96.4998,4.0,7.649660123,97.73858231,9.15,'11111222,11111222,11111222' 
TABS,ioos:station:wmo:42045:1,2017-03-03T15:00:00Z,26.2168,-96.4998,4.0,7.323066298,96.90221715,9.37,'11111222,11111222,11111222' 
TABS,ioos:station:wmo:42045:1,2017-03-03T15:30:00Z,26.2168,-96.4998,4.0,7.391867152,100.8390813,9.17,'11111222,11111222,11111222' 
TABS,ioos:station:wmo:42045:1,2017-03-03T16:00:00Z,26.2168,-96.4998,4.0,7.312892724,100.0809953,9.41,'11111222,11111222,11111222' 
TABS,ioos:station:wmo:42045:1,2017-03-03T16:30:00Z,26.2168,-96.4998,4.0,7.210020804,93.02155473,8.4,'11111222,11111222,11111222' 
TABS,ioos:station:wmo:42045:1,2017-03-03T17:00:00Z,26.2168,-96.4998,4.0,7.223330257,96.27928162,8.83,'11111222,11111222,11111222' 
TABS,ioos:station:wmo:42045:1,2017-03-03T17:30:00Z,26.2168,-96.4998,4.0,7.366206622,101.0357493,9.4,'11111222,11111222,11111222' 
TABS,ioos:station:wmo:42045:1,2017-03-03T18:00:00Z,26.2168,-96.4998,4.0,7.277946139,101.5727951,9.18,'11111222,11111222,11111222' 
TABS,ioos:station:wmo:42045:1,2017-03-03T18:30:00Z,26.2168,-96.4998,4.0,7.186042026,100.7473966,8.74,'11111222,11111222,11111222' 
TABS,ioos:station:wmo:42045:1,2017-03-03T19:00:00Z,26.2168,-96.4998,4.0,7.011654584,99.27464687,8.7,'11111222,11111222,11111222' 
TABS,ioos:station:wmo:42045:1,2017-03-03T19:30:00Z,26.2168,-96.4998,4.0,6.909703322,95.31495416,9.1,'11111222,11111222,11111222' 
TABS,ioos:station:wmo:42045:1,2017-03-03T20:00:00Z,26.2168,-96.4998,4.0,7.222084187,95.40313233,9.56,'11111222,11111222,11111222' 
TABS,ioos:station:wmo:42045:1,2017-03-03T20:30:00Z,26.2168,-96.4998,4.0,7.066378139,94.95258976,9.28,'11111222,11111222,11111222' 
TABS,ioos:station:wmo:42045:1,2017-03-03T21:00:00Z,26.2168,-96.4998,4.0,7.07255258,91.53982022,9.01,'11111222,11111222,11111222' 
TABS,ioos:station:wmo:42045:1,2017-03-03T21:30:00Z,26.2168,-96.4998,4.0,7.480106951,90.30681182,9.77,'11111222,11111222,11111222' 
TABS,ioos:station:wmo:42045:1,2017-03-03T22:00:00Z,26.2168,-96.4998,4.0,7.820006394,95.79848603,9.39,'11111222,11111222,11111222' 
TABS,ioos:station:wmo:42045:1,2017-03-03T22:30:00Z,26.2168,-96.4998,4.0,7.916564912,95.50935773,9.62,'11111222,11111222,11111222' 
TABS,ioos:station:wmo:42045:1,2017-03-03T23:00:00Z,26.2168,-96.4998,4.0,8.021178218,99.11042592,9.6,'11111222,11111222,11111222' 
TABS,ioos:station:wmo:42045:1,2017-03-03T23:30:00Z,26.2168,-96.4998,4.0,8.046924878,97.92911442,10.57,'11111222,11111222,11111222' 
TABS,ioos:station:wmo:42045:1,2017-03-04T00:00:00Z,26.2168,-96.4998,4.0,7.75644893,101.5276292,9.2,'11111222,11111222,11111222' 
TABS,ioos:station:wmo:42045:1,2017-03-04T00:30:00Z,26.2168,-96.4998,4.0,7.825317885,101.7985487,9.55,'11111222,11111222,11111222' 
TABS,ioos:station:wmo:42045:1,2017-03-04T01:00:00Z,26.2168,-96.4998,4.0,7.874642849,102.7659568,10.0,'11111222,11111222,11111222' 
TABS,ioos:station:wmo:42045:1,2017-03-04T01:30:00Z,26.2168,-96.4998,4.0,8.069306042,103.6922074,9.66,'11111222,11111222,11111222' 
TABS,ioos:station:wmo:42045:1,2017-03-04T02:00:00Z,26.2168,-96.4998,4.0,8.272810889,107.9534939,10.24,'11111222,11111222,11111222' 
TABS,ioos:station:wmo:42045:1,2017-03-04T02:30:00Z,26.2168,-96.4998,4.0,7.947685198,105.9952918,9.33,'11111222,11111222,11111222' 
TABS,ioos:station:wmo:42045:1,2017-03-04T03:00:00Z,26.2168,-96.4998,4.0,7.907970663,109.8101582,9.82,'11111222,11111222,11111222' 
TABS,ioos:station:wmo:42045:1,2017-03-04T03:30:00Z,26.2168,-96.4998,4.0,8.392359621,109.9251527,9.81,'11111222,11111222,11111222' 
TABS,ioos:station:wmo:42045:1,2017-03-04T04:00:00Z,26.2168,-96.4998,4.0,7.365358104,113.7811892,9.3,'11111222,11111222,11111222' 
TABS,ioos:station:wmo:42045:1,2017-03-04T04:30:00Z,26.2168,-96.4998,4.0,8.246314328,126.3699678,9.9,'11111222,11111222,11111222' 
TABS,ioos:station:wmo:42045:1,2017-03-04T05:00:00Z,26.2168,-96.4998,4.0,8.186000244,126.8562339,9.8,'11111222,11111222,11111222' 
TABS,ioos:station:wmo:42045:1,2017-03-04T05:30:00Z,26.2168,-96.4998,4.0,7.807291464,125.8280745,9.65,'11111222,11111222,11111222' 
TABS,ioos:station:wmo:42045:1,2017-03-04T06:00:00Z,26.2168,-96.4998,4.0,7.827387815,124.3806852,9.32,'11111222,11111222,11111222' 
TABS,ioos:station:wmo:42045:1,2017-03-04T06:30:00Z,26.2168,-96.4998,4.0,7.486641437,127.6202527,9.24,'11111222,11111222,11111222' 
TABS,ioos:station:wmo:42045:1,2017-03-04T07:00:00Z,26.2168,-96.4998,4.0,7.855042966,125.9365433,9.53,'11111222,11111222,11111222' 
TABS,ioos:station:wmo:42045:1,2017-03-04T07:30:00Z,26.2168,-96.4998,4.0,7.798781956,129.589548,9.62,'11111222,11111222,11111222' 
TABS,ioos:station:wmo:42045:1,2017-03-04T08:00:00Z,26.2168,-96.4998,4.0,8.248987817,125.3280832,9.53,'11111222,11111222,11111222' 
TABS,ioos:station:wmo:42045:1,2017-03-04T08:30:00Z,26.2168,-96.4998,4.0,8.629374253,127.892786,10.44,'11111222,11111222,11111222' 
TABS,ioos:station:wmo:42045:1,2017-03-04T09:00:00Z,26.2168,-96.4998,4.0,7.954200148,129.1326231,9.74,'11111222,11111222,11111222' 
TABS,ioos:station:wmo:42045:1,2017-03-04T09:30:00Z,26.2168,-96.4998,4.0,7.778335297,129.5229598,9.45,'11111222,11111222,11111222' 
TABS,ioos:station:wmo:42045:1,2017-03-04T10:00:00Z,26.2168,-96.4998,4.0,7.490500651,129.2574445,8.85,'11111222,11111222,11111222' 
TABS,ioos:station:wmo:42045:1,2017-03-04T10:30:00Z,26.2168,-96.4998,4.0,7.882036539,126.6957727,9.36,'11111222,11111222,11111222' 
TABS,ioos:station:wmo:42045:1,2017-03-04T11:00:00Z,26.2168,-96.4998,4.0,7.668037559,127.0495609,8.93,'11111222,11111222,11111222' 
TABS,ioos:station:wmo:42045:1,2017-03-04T11:30:00Z,26.2168,-96.4998,4.0,6.936194922,126.4406883,8.88,'11111222,11111222,11111222' 
TABS,ioos:station:wmo:42045:1,2017-03-04T12:00:00Z,26.2168,-96.4998,4.0,7.508455234,125.4049558,9.41,'11111222,11111222,11111222' 
TABS,ioos:station:wmo:42045:1,2017-03-04T12:30:00Z,26.2168,-96.4998,4.0,7.638461887,127.500324,9.24,'11111222,11111222,11111222' 
TABS,ioos:station:wmo:42045:1,2017-03-04T13:00:00Z,26.2168,-96.4998,4.0,7.879600244,129.3869425,9.59,'11111222,11111222,11111222' 
TABS,ioos:station:wmo:42045:1,2017-03-04T13:30:00Z,26.2168,-96.4998,4.0,7.765886942,133.7481512,8.91,'11111222,11111222,11111222' 
TABS,ioos:station:wmo:42045:1,2017-03-04T14:00:00Z,26.2168,-96.4998,4.0,7.887331615,129.3408471,9.28,'11111222,11111222,11111222' 
TABS,ioos:station:wmo:42045:1,2017-03-04T14:30:00Z,26.2168,-96.4998,4.0,7.988554312,130.3293419,9.71,'11111222,11111222,11111222' 
TABS,ioos:station:wmo:42045:1,2017-03-04T15:00:00Z,26.2168,-96.4998,4.0,8.262475416,132.1060849,10.06,'11111222,11111222,11111222' 
TABS,ioos:station:wmo:42045:1,2017-03-04T15:30:00Z,26.2168,-96.4998,4.0,7.863027407,135.0003157,9.43,'11111222,11111222,11111222' 
TABS,ioos:station:wmo:42045:1,2017-03-04T16:00:00Z,26.2168,-96.4998,4.0,8.36725164,133.6928652,9.83,'11111222,11111222,11111222' 
TABS,ioos:station:wmo:42045:1,2017-03-04T16:30:00Z,26.2168,-96.4998,4.0,8.220523098,136.7748283,9.69,'11111222,11111222,11111222' 
TABS,ioos:station:wmo:42045:1,2017-03-04T17:00:00Z,26.2168,-96.4998,4.0,8.330306117,135.6812166,10.0,'11111222,11111222,11111222' 
TABS,ioos:station:wmo:42045:1,2017-03-04T17:30:00Z,26.2168,-96.4998,4.0,7.9178343,137.0986813,9.6,'11111222,11111222,11111222' 
TABS,ioos:station:wmo:42045:1,2017-03-04T18:00:00Z,26.2168,-96.4998,4.0,7.877486909,135.5146254,9.2,'11111222,11111222,11111222' 
TABS,ioos:station:wmo:42045:1,2017-03-04T18:30:00Z,26.2168,-96.4998,4.0,7.997380821,135.050975,9.61,'11111222,11111222,11111222' 